Regional Weather Roundup
Issued by NWS

Home | Current Version | Previous Version | Text Only | Print | Product List | Glossary On
Versions: 1 2 3 4 5 6 7 8 9 10 11 12 13 14 15 16 17 18 19 20 21 22 23 24 25 26 27 28 29 30 31 32 33 34 35 36 37 38 39 40 41 42 43 44 45 46 47 48 49 50
118
ASUS43 KLSX 281307
RWRMO

WEATHER SUMMARY FOR MISSOURI
NATIONAL WEATHER SERVICE SPRINGFIELD MO
800 AM CDT WED JUN 28 2017

NOTE: "FAIR" INDICATES FEW OR NO CLOUDS BELOW 12,000 FEET WITH NO
       SIGNIFICANT WEATHER AND/OR OBSTRUCTIONS TO VISIBILITY.
       CURRENT SKY AND/OR WEATHER CONDITIONS ARE NOT AVAILABLE FOR
       CHILLICOTHE AND FARMINGTON.

MOZ001>031-035>038-043-044-053-054-281400-
...NORTHERN AND WESTERN MISSOURI...

CITY           SKY/WX    TMP DP  RH WIND       PRES   REMARKS
KANSAS CTY INT CLOUDY    73  66  78 S18       29.87S
KANSAS C DTWN  CLOUDY    75  66  73 SW16G25   29.87R
LEE`S SUMMIT   MOSUNNY   72  64  76 S17G24    29.90S
ST JOSEPH      CLOUDY    70  69  97 SE13      29.83F
CHILLICOTHE      N/A     72  64  76 S5        29.91S
KIRKSVILLE     PTSUNNY   70  63  78 SW13      29.93R

$$
MOZ066>068-077>081-088>096-101>105-281400-
...SOUTHWEST MISSOURI...

CITY           SKY/WX    TMP DP  RH WIND       PRES   REMARKS
SPRINGFIELD    SUNNY     70  64  81 S13       30.00F
JOPLIN         CLOUDY    74  66  76 S13G20    29.98R
BRANSON        PTSUNNY   68  63  83 SE7       30.07R

$$
MOZ032>034-039>042-045>050-055>058-069>072-281400-
...CENTRAL MISSOURI...

CITY           SKY/WX    TMP DP  RH WIND       PRES   REMARKS
COLUMBIA       PTSUNNY   70  64  81 S14G23    29.98S
JEFFERSON CITY CLOUDY    73  63  70 S9        29.99R
ROLLA          CLOUDY    70  63  78 S14G22    30.02R
SEDALIA        CLOUDY    72  66  81 S14       29.96R
WHITEMAN AFB   CLOUDY    71  70  96 S17G26    29.92F
WARRENSBURG    CLOUDY    70  61  73 S15G21    29.91F
OSAGE BEACH    MOSUNNY   69  64  84 S9        30.01R

$$
MOZ051-052-059>065-281400-
...EAST CENTRAL MISSOURI...

CITY           SKY/WX    TMP DP  RH WIND       PRES   REMARKS
ST LOUIS INTL  CLOUDY    72  60  66 S15       30.02S
SPIRIT OF STL  CLOUDY    70  62  76 VRB5      30.01R
ST CHARLES     MOSUNNY   71  62  73 S13       30.00S

$$
MOZ072>076-082>087-097>100-106>115-281400-
...SOUTH CENTRAL AND SOUTHEAST MISSOURI...

CITY           SKY/WX    TMP DP  RH WIND       PRES   REMARKS
CAPE GIRARDEAU MOSUNNY   71  60  68 S7        30.07R
FARMINGTON     MOSUNNY   67  62  84 S8        30.07S
POPLAR BLUFF   MOSUNNY   70  67  90 CALM      30.07R
WEST PLAINS    SUNNY     69  63  81 S6        30.07R

$$



USA.gov is the U.S. government's official web portal to all federal, state and local government web resources and services.